This demonstration page uses our WeatherBlox Daily Observations layout. Learn more.

Left ArrowRight Arrow

34.74481, -87.66753

Hourly Observations for March 3, 2021

Temp ( °F °C ) Dew Point ( °F °C ) Humidity (%) Winds ( mph kmh ) Pressure ( in mb ) Visibility ( mi km ) Precip ( " mm )
12:53 am 00:53 Mostly Cloudy 43 6.1 35 1.7 74 74 WNW 3 6 30.11 1020 10 16 0.00 0.00
1:53 am 01:53 Clear 42 5.6 33 0.6 71 71 NW 7 11 30.11 1020 10 16 0.00 0.00
2:53 am 02:53 Clear 41 5 31 -0.6 67 67 NW 3 6 30.10 1019 10 16 0.00 0.00
3:53 am 03:53 Clear 39 3.9 30 -1.1 70 70 W 3 6 30.10 1019 10 16 0.00 0.00
4:53 am 04:53 Clear 39 3.9 29 -1.7 67 67 Calm 30.10 1019 10 16 0.00 0.00
5:53 am 05:53 Clear 38 3.3 29 -1.7 70 70 Calm 30.11 1020 10 16 0.00 0.00
6:53 am 06:53 Sunny 37 2.8 30 -1.1 76 76 Calm 30.14 1021 10 16 0.00 0.00
7:53 am 07:53 Sunny 45 7.2 31 -0.6 58 58 N 5 7 30.16 1021 10 16 0.00 0.00
8:53 am 08:53 Sunny 49 9.4 33 0.6 55 55 N 7 11 30.18 1022 10 16 0.00 0.00
9:53 am 09:53 Sunny 51 10.6 31 -0.6 46 46 NNW 6 9 30.19 1022 10 16 0.00 0.00
10:53 am 10:53 Sunny 56 13.3 33 0.6 42 42 VRB 7 11 30.17 1022 10 16 0.00 0.00
11:53 am 11:53 Sunny 59 15 34 1.1 39 39 N 6 9 30.14 1021 10 16 0.00 0.00
12:53 pm 12:53 Sunny 60 15.6 31 -0.6 33 33 Calm 30.12 1020 10 16 0.00 0.00
1:53 pm 13:53 Sunny 62 16.7 31 -0.6 31 31 VRB 3 6 30.10 1019 10 16 0.00 0.00
2:53 pm 14:53 Sunny 63 17.2 31 -0.6 30 30 WNW 7 11 30.09 1019 10 16 0.00 0.00
3:53 pm 15:53 Sunny 64 17.8 32 0 30 30 NW 7 11 30.08 1019 10 16 0.00 0.00
4:53 pm 16:53 Sunny 63 17.2 31 -0.6 30 30 W 5 7 30.07 1018 10 16 0.00 0.00
5:53 pm 17:53 Clear 56 13.3 34 1.1 44 44 W 7 11 30.09 1019 10 16 0.00 0.00
6:53 pm 18:53 Clear 53 11.7 33 0.6 47 47 WNW 3 6 30.09 1019 10 16 0.00 0.00
7:53 pm 19:53 Clear 55 12.8 32 0 42 42 WNW 3 6 30.09 1019 10 16 0.00 0.00
8:53 pm 20:53 Clear 49 9.4 34 1.1 56 56 Calm 30.11 1020 10 16 0.00 0.00
9:53 pm 21:53 Clear 47 8.3 34 1.1 61 61 Calm 30.12 1020 10 16 0.00 0.00
10:53 pm 22:53 Clear 46 7.8 34 1.1 63 63 Calm 30.12 1020 10 16 0.00 0.00
11:53 pm 23:53 Clear 44 6.7 34 1.1 68 68 Calm 30.12 1020 10 16 0.00 0.00

Powered by AerisWeather